User: anonymous   Login
Location: Summit Observatory
(39.5293°N, 75.7290°W)
Time: 19:45:05
(UTC-05:00)
Language:

Gurwin Techsat 1B - Orbit

View from above orbital plane
View from above orbital plane
View from above satellite
View from above satellite

Ground track
Ground track

The orbit data is extracted from the following two-line orbital elements,

1 25397U 98043D   16339.86106235 +.00000006 +00000-0 +21310-4 0  9990
2 25397 098.5879 280.5264 0001229 152.2015 207.9229 14.23609919955926
Epoch (UTC): 04 December 2016 20:39:55
Eccentricity: 0.0001229
inclination: 98.5879°
perigee height: 812 km
apogee height: 814 km
right ascension of ascending node: 280.5264°
argument of perigee: 152.2015°
revolutions per day: 14.23609919
mean anomaly at epoch: 207.9229°
orbit number at epoch: 95592

The dashed part of the orbit path shows where the satellite is in the earth's shadow,  

DLR